Torna al catalogo

OPS 4682 DEB

AttivoPO
NORAD 55119·DEBRIS·🇺🇸 United States

Lanciato Apr 3, 1965 da Vandenberg Space Force Base

Loading…

Prossimi Passaggi (prossime 24 ore)

TLE

AggiornatoSource: Space-Track

Epoca: Sep 13, 2026, 07:11 UTC

1 55119U 65027HJ  26256.29966948  .00000558  00000-0  19166-2 0  9998
2 55119  90.2539   8.3458 0022747 223.2438 136.6897 12.96684581341340

Traccia OPS 4682 DEB in tempo reale con AllMySat

Download on the App Store